Home   Weather   Neumünster   Past weeks

Flag for Germany Past Weather in Neumünster, Schleswig-Holstein, Germany — Yesterday and Last 2 Weeks

Now
50 °F

Broken clouds.


Feels Like: 45 °F
Forecast: 42 / 48 °F
Wind: 14 mph from Southwest

Location: Kiel / Holtenau Civilian

Current Time: Jan 24, 2018 at 11:34:02 am

Latest Report: Jan 24, 2018 at 10:50 am


Visibility: N/A

Pressure: 29.83 "Hg

Humidity: 94%

Dew Point: 48 °F

Location of NeumünsterLocation

Past Weather in Neumünster — Graph

°F

Neumünster Temperature Yesterday

Maximum temperature yesterday: 43 °F (at 2:20 pm)
Minimum temperature yesterday: 34 °F (at 5:20 am)
Average temperature yesterday: 38 °F

High & Low Weather Summary for the Past Weeks

 TemperatureHumidityPressure
High50 °F (Jan 24, 9:50 am)100% (Jan 11, 5:20 am)30.45 "Hg (Jan 11, 5:20 am)
Low28 °F (Jan 21, 10:20 am)48% (Jan 9, 10:50 am)28.97 "Hg (Jan 18, 12:50 pm)
Average36 °F90%29.80 "Hg
* Reported Jan 9 10:20 am — Jan 24 10:20 am, Neumünster. Weather by CustomWeather, © 2018

Note: Actual official high and low records may vary slightly from our data, if they occured in-between our weather recording intervals... More about our weather records

Advertising

Neumünster Weather History for the Previous 24 Hours

Scroll right to see more
 ConditionsComfort  
Time TempWeatherWind HumidityBarometerVisibility
10:20 am
Wed, Jan 24
50 °FBroken clouds.13 mph88%29.83 "HgN/A
9:50 am50 °FScattered clouds.15 mph88%29.83 "HgN/A
9:20 am48 °FScattered clouds.13 mph94%29.83 "HgN/A
8:50 am48 °FScattered clouds.13 mph87%29.86 "HgN/A
8:20 am48 °FPassing clouds.14 mph94%29.86 "HgN/A
7:50 am48 °FPassing clouds.13 mph94%29.86 "HgN/A
7:20 am48 °FPassing clouds.9 mph94%29.86 "HgN/A
6:50 am48 °FPassing clouds.13 mph94%29.86 "HgN/A
6:20 am48 °FPartly cloudy.13 mph87%29.86 "HgN/A
5:50 am48 °FPartly cloudy.16 mph94%29.86 "HgN/A
5:20 am48 °FPassing clouds.16 mph94%29.86 "HgN/A
4:20 pm
Tue, Jan 23
43 °FPartly sunny.7 mph93%30.01 "Hg4 mi
3:50 pm43 °FPartly sunny.6 mph93%30.04 "Hg5 mi
3:20 pm43 °FPartly sunny.9 mph87%30.04 "Hg5 mi
2:50 pm43 °FPartly sunny.10 mph93%30.04 "Hg6 mi
2:20 pm43 °FMostly cloudy.10 mph93%30.04 "Hg4 mi
1:50 pm41 °FFog.10 mph100%30.07 "Hg3 mi
1:20 pm41 °FFog.9 mph100%30.07 "Hg2 mi
12:50 pm39 °FLow clouds.8 mph100%30.07 "Hg1 mi
11:50 am39 °FFog.6 mph93%30.07 "Hg1 mi
Weather by CustomWeather, © 2018

See weather overview